www.pogodaiklimat.ru

Погода и климат >> Архив погоды >> Япония >> Аомори


ПОГОДА в Аомори

  • Прогноз погоды в Аомори
  • Монитор погоды в Аомори

АРХИВ ПОГОДЫ в Аомори

Время (UTC), дата Ветер
(напр.,м/с)
 
Видим.   Явления Облачность Т
(С)
Тd
(С)
f
(%)
Тe
(С)
Тes
(С)
Комфортность P
(гПа)
Po
(гПа)
Тmin
(С)
Tmax
(С)
R
(мм)
R24
(мм)
S
(см)
22 11.07 СЗ 3 н/о н/о +18.4 +16.9 91 +19 +19 1006.7 1006.2
23 11.07 ЮЗ 2 н/о н/о +18.5 +17.0 91 +20 +20 1006.3 1005.8
00 12.07 ЮЗ 2 8000 м в посл. час дождь 10/1
[St Ac As]
+19.3 +16.7 85 +22 +25 комфорт 1005.6 1005.1 +17.3 1
01 12.07 СЗ 2 н/о н/о +18.8 +17.3 91 +21 +21 комфорт 1005.2 1004.7
02 12.07 З 2 н/о н/о +18.0 +17.2 95 +19 +19 1005.3 1004.8
03 12.07 С 3 3000 м гроза, ливневой дождь 10/10
[Cb cap]
+17.9 +17.6 98 +18 +18 1004.4 1003.9
04 12.07 СЗ 2 н/о н/о +19.0 +18.2 95 +21 +21 комфорт 1003.8 1003.3
05 12.07 СЗ 2 н/о н/о +18.9 +18.3 96 +21 +21 комфорт 1003.4 1002.9
06 12.07 СЗ 1 5000 м слаб. ливневой дождь {гроза} 10/10
[Cu med, cong]
+19.1 +18.1 94 +22 +22 комфорт 1003.1 1002.6 7
07 12.07 СЗ 2 н/о н/о +19.7 +18.4 92 +23 +23 комфорт 1002.7 1002.2
08 12.07 СЗ 2 н/о н/о +19.6 +18.4 93 +23 +23 комфорт 1002.5 1002.0
09 12.07 СЗ 2 8000 м в посл. час ливневой дождь 9/9
[Cu med, cong]
+19.5 +18.7 95 +23 +23 комфорт 1002.6 1002.1
10 12.07 З 1 н/о н/о +19.4 +18.6 95 +23 +23 комфорт 1002.3 1001.8
11 12.07 С 2 н/о н/о +19.3 +18.7 96 +22 +22 комфорт 1002.4 1001.9
12 12.07 СЗ 1 8000 м {ливн. осадки} 9/9
[Cu med, cong]
+19.2 +18.4 95 +22 +22 комфорт 1002.3 1001.8 +20.3 7
13 12.07 СЗ 2 н/о н/о +19.1 +18.3 95 +21 +21 комфорт 1002.4 1001.9
14 12.07 В 3 н/о н/о +19.6 +18.6 94 +23 +23 комфорт 1001.9 1001.4
15 12.07 СЗ 2 н/о н/о +19.3 +18.3 94 +22 +22 комфорт 1001.7 1001.2
16 12.07 СЗ 3 н/о н/о +18.8 +18.2 96 +20 +20 1001.8 1001.3
17 12.07 СЗ 2 н/о н/о +18.9 +18.3 96 +21 +21 комфорт 1002.1 1001.6
18 12.07 СЗ 2 8000 м дымка 9/9
[Sc]
+18.8 +18.0 95 +21 +21 комфорт 1002.5 1002.0
19 12.07 З 2 н/о н/о +18.8 +17.8 94 +21 +21 комфорт 1002.9 1002.4
20 12.07 ЮВ 2 н/о н/о +19.2 +18.2 94 +22 +22 комфорт 1003.0 1002.5
21 12.07 З 2 20 км {ливн. осадки} 6/3
[Cu Sc Ci fib]
+20.3 +17.7 85 +24 +26 комфорт 1003.3 1002.8
22 12.07 СЗ 2 н/о н/о +20.4 +18.2 87 +25 +25 комфорт 1003.8 1003.3
23 12.07 С 2 н/о н/о +20.6 +18.2 86 +25 +25 комфорт 1004.3 1003.8
00 13.07 З 4 35 км {ливн. осадки} 10/10
[Cu med, cong]
+21.3 +17.3 78 +25 +25 комфорт 1004.5 1004.0 +18.7 0.0
01 13.07 З 1 н/о н/о +22.1 +16.8 72 +26 +26 душно 1004.7 1004.2
02 13.07 В 3 н/о н/о +22.4 +17.6 74 +27 +27 душно 1004.7 1004.2
03 13.07 СВ 2 35 км {ливн. осадки} 9/9
[Cu med, cong]
+23.0 +17.5 71 +28 +30 душно 1004.3 1003.8
04 13.07 ЮЗ 5 н/о н/о +25.9 +16.2 55 +29 +29 душно 1003.8 1003.3
05 13.07 ЮЗ 5 н/о н/о +27.4 +16.4 51 +31 +31 душно 1003.5 1003.0
06 13.07 ЮЗ 6 40 км {ливн. осадки} 3/3
[Cu Sc]
+27.1 +16.4 52 +31 +33 душно 1003.4 1002.9 0.0
07 13.07 З 4 н/о н/о +26.1 +16.1 54 +29 +29 жарко 1003.5 1003.0
08 13.07 С 3 н/о н/о +23.1 +18.0 73 +29 +29 очень
душно
1003.5 1003.0
09 13.07 С 4 35 км 4/4
[Cu med, cong]
+23.5 +18.2 72 +28 +28 душно 1003.7 1003.2
10 13.07 СЗ 4 н/о н/о +21.9 +18.5 81 +27 +27 душно 1004.1 1003.6
11 13.07 СЗ 3 н/о н/о +20.8 +18.4 86 +25 +25 комфорт 1004.6 1004.1
12 13.07 ЮЗ 2 20 км 3/3
[Cu Sc]
+20.7 +18.1 85 +25 +25 комфорт 1005.1 1004.6 +27.7 0.0
13 13.07 З 2 н/о н/о +19.9 +17.9 88 +24 +24 комфорт 1005.1 1004.6
14 13.07 СЗ 2 н/о н/о +19.2 +17.9 92 +22 +22 комфорт 1005.2 1004.7
15 13.07 З 2 н/о н/о +18.9 +17.8 93 +21 +21 комфорт 1005.1 1004.6
16 13.07 Ю 1 н/о н/о +18.0 +16.7 92 +19 +19 1004.7 1004.2
17 13.07 Ю 2 н/о н/о +18.1 +16.8 92 +19 +19 1004.7 1004.2
18 13.07 Ю 2 8000 м дымка 9/9
[St]
+18.2 +17.4 95 +19 +19 1004.5 1004.0
19 13.07 Ю 2 н/о н/о +18.1 +17.3 95 +19 +19 1004.3 1003.8
20 13.07 ЮВ 2 н/о н/о +17.9 +17.3 96 +19 +19 1004.7 1004.2
21 13.07 В 1 5000 м дымка 10/10
[St]
+18.0 +17.4 96 +20 +20 1004.6 1004.1
22 13.07 С 2 н/о н/о +18.2 +17.2 94 +19 +19 1004.5 1004.0
23 13.07 С 3 н/о н/о +19.1 +17.1 88 +21 +21 комфорт 1004.1 1003.6
00 14.07 СЗ 4 10 км 9/8
[Sc Ac As]
+20.5 +17.7 84 +24 +26 комфорт 1004.2 1003.7 +17.8
01 14.07 СЗ 4 н/о н/о +22.2 +17.6 75 +27 +27 душно 1003.9 1003.4
02 14.07 СВ 7 н/о н/о +25.6 +18.3 64 +30 +30 душно 1003.2 1002.7
03 14.07 СВ 8 30 км 6/3
[Cu med, cong Ac trans Cc]
+25.9 +19.1 66 +31 +33 очень
душно
1003.0 1002.5
04 14.07 СВ 7 н/о н/о +26.4 +18.5 62 +31 +31 душно 1003.1 1002.6
05 14.07 СВ 8 н/о н/о +25.6 +18.8 66 +31 +31 очень
душно
1003.0 1002.5
06 14.07 В 7 30 км 5/3
[Cu Sc Ac trans Cc]
+25.5 +18.9 67 +30 +32 душно 1003.1 1002.6
07 14.07 В 6 н/о н/о +24.4 +18.4 69 +29 +29 душно 1003.1 1002.6
08 14.07 СВ 7 н/о н/о +23.3 +18.0 72 +29 +29 душно 1003.5 1003.0
09 14.07 СВ 7 20 км 9/6
[Cu Sc Ac As Ci sp]
+22.5 +17.6 74 +28 +28 душно 1004.3 1003.8
10 14.07 СВ 8 н/о н/о +21.6 +17.2 76 +26 +26 душно 1004.7 1004.2
11 14.07 СВ 8 н/о н/о +20.5 +16.5 78 +23 +23 комфорт 1005.3 1004.8
12 14.07 СВ 8 20 км 5/1
[Sc Ac As]
+20.0 +16.3 79 +22 +22 комфорт 1005.8 1005.3 +27.1
13 14.07 СВ 9 н/о н/о +19.6 +15.9 79 +21 +21 комфорт 1006.1 1005.6
14 14.07 В 8 н/о н/о +19.4 +15.7 79 +21 +21 комфорт 1006.4 1005.9
15 14.07 СВ 8 н/о н/о +19.2 +15.7 80 +20 +20 1006.6 1006.1
16 14.07 В 7 н/о н/о +19.0 +15.5 80 +20 +20 1007.1 1006.6
17 14.07 СВ 7 н/о н/о +18.9 +15.6 81 +20 +20 1007.3 1006.8
18 14.07 СВ 6 20 км 9/1
[Sc Ac As]
+18.7 +15.6 82 +19 +19 1007.6 1007.1
19 14.07 В 8 н/о н/о +19.0 +15.3 79 +19 +19 1007.7 1007.2
20 14.07 В 8 н/о н/о +18.9 +15.2 79 +19 +19 1008.2 1007.7
21 14.07 В 8 20 км 9/1
[St Ac As]
+19.2 +15.3 78 +20 +20 1008.8 1008.3
22 14.07 СВ 8 н/о н/о +19.9 +15.4 75 +22 +22 комфорт 1009.3 1008.8
23 14.07 В 7 н/о н/о +21.2 +15.5 70 +24 +24 комфорт 1009.6 1009.1
00 15.07 В 9 15 км в посл. час дождь 6/3
[Sc Ac trans]
+22.1 +15.5 66 +26 +27 душно 1009.8 1009.3 +18.7 0.0
01 15.07 В 8 н/о н/о +22.4 +15.5 65 +26 +26 жарко 1010.3 1009.8
02 15.07 В 11 н/о н/о +22.7 +15.6 64 +27 +27 душно 1010.7 1010.2
03 15.07 В 11 15 км 3/3
[Sc Ac trans]
+23.1 +15.4 62 +27 +27 душно 1010.8 1010.3
04 15.07 СВ 9 н/о н/о +23.0 +15.8 64 +27 +27 душно 1010.7 1010.2
05 15.07 СВ 10 н/о н/о +22.6 +15.2 63 +26 +26 жарко 1010.8 1010.3
06 15.07 СВ 10 15 км 3/3
[Cu med, cong Ac trans]
+22.4 +15.0 63 +26 +26 жарко 1010.7 1010.2
07 15.07 В 10 н/о н/о +21.4 +14.6 65 +24 +24 комфорт 1010.9 1010.4
08 15.07 СВ 9 н/о н/о +20.8 +14.7 68 +23 +23 комфорт 1011.0 1010.5
09 15.07 СВ 8 15 км 1/1
[Sc diur, vesp]
+19.6 +14.6 73 +21 +21 комфорт 1011.5 1011.0
10 15.07 СВ 9 н/о н/о +18.7 +14.4 76 +19 +19 1011.8 1011.3
11 15.07 СВ 6 н/о н/о +18.3 +14.2 77 +18 +18 1012.5 1012.0
12 15.07 СВ 6 20 км 1/1
[Sc diur, vesp]
+18.0 +14.1 78 +17 +17 1012.9 1012.4 +23.8
13 15.07 СВ 7 н/о н/о +18.0 +14.1 78 +17 +17 1012.9 1012.4
14 15.07 СВ 6 н/о н/о +18.0 +14.1 78 +18 +18 1013.2 1012.7
15 15.07 СВ 5 н/о н/о +18.0 +14.3 79 +18 +18 1013.0 1012.5
16 15.07 В 3 н/о н/о +17.6 +14.5 82 +18 +18 1012.6 1012.1
17 15.07 Ю 1 н/о н/о +16.5 +14.2 86 +17 +17 1012.7 1012.2
18 15.07 ЮВ 1 20 км 1/1
[St]
+16.1 +14.1 88 +17 +17 1012.9 1012.4
19 15.07 ЮВ 1 н/о н/о +15.7 +13.9 89 +16 +16 1013.4 1012.9
20 15.07 ЮЗ 1 н/о н/о +15.9 +14.1 89 +17 +17 1013.6 1013.1
21 15.07 Ю 1 30 км 1/1
[St]
+17.0 +14.3 84 +18 +20 1013.9 1013.4
22 15.07 С 1 н/о н/о +19.4 +15.5 78 +23 +23 комфорт 1014.2 1013.7
23 15.07 С 5 н/о н/о +22.3 +16.1 68 +26 +26 жарко 1014.0 1013.5
00 16.07 С 3 35 км 1/1
[Cu Sc]
+24.3 +16.8 63 +28 +39 душно 1013.8 1013.3 +15.5
01 16.07 СВ 4 н/о н/о +25.6 +17.3 60 +30 +30 душно 1013.5 1013.0
02 16.07 СВ 5 н/о н/о +27.0 +17.5 56 +31 +31 душно 1013.2 1012.7
03 16.07 В 6 30 км 1/1
[Cu Sc Ac trans]
+27.2 +17.7 56 +31 +39 душно 1012.9 1012.4
04 16.07 В 6 н/о н/о +26.7 +17.5 57 +31 +31 душно 1012.7 1012.2
05 16.07 В 6 н/о н/о +27.2 +18.0 57 +32 +32 очень
душно
1012.4 1011.9
06 16.07 В 6 30 км 3/1
[Cu Sc Ac trans Ci fib]
+27.1 +18.1 58 +32 +35 очень
душно
1012.2 1011.7
07 16.07 В 5 н/о н/о +26.5 +18.1 60 +31 +31 душно 1012.4 1011.9
08 16.07 В 4 н/о н/о +25.5 +18.0 63 +30 +30 душно 1012.6 1012.1
09 16.07 В 5 20 км 1/1
[Cu Sc Ac trans Ci fib]
+23.4 +17.4 69 +29 +29 душно 1012.8 1012.3
10 16.07 В 3 н/о н/о +22.1 +17.5 75 +27 +27 душно 1013.3 1012.8
11 16.07 Ю 2 н/о н/о +21.4 +17.4 78 +25 +25 комфорт 1013.8 1013.3
12 16.07 ЮВ 3 8000 м дымка 8/1
[St Ac trans]
+19.7 +17.5 87 +23 +23 комфорт 1014.3 1013.8 +27.9
13 16.07 СЗ 2 н/о н/о +19.9 +17.5 86 +23 +23 комфорт 1014.2 1013.7
14 16.07 ЮВ 3 н/о н/о +18.7 +17.2 91 +20 +20 1014.4 1013.9
15 16.07 ЮВ 2 н/о н/о +18.4 +17.1 92 +20 +20 1014.2 1013.7
16 16.07 СЗ 3 н/о н/о +18.5 +17.2 92 +20 +20 1013.8 1013.3
17 16.07 С 3 н/о н/о +18.4 +17.1 92 +19 +19 1014.0 1013.5
18 16.07 СЗ 3 8000 м дымка 10/10
[St]
+18.2 +17.1 93 +19 +19 1014.0 1013.5
19 16.07 СЗ 2 н/о н/о +18.1 +17.3 95 +19 +19 1014.1 1013.6
20 16.07 С 2 н/о н/о +18.0 +17.2 95 +19 +19 1014.3 1013.8
21 16.07 СЗ 2 4000 м дымка 10/10
[St]
+18.1 +17.3 95 +19 +19 1014.7 1014.2
22 16.07 С 2 н/о н/о +18.2 +17.4 95 +19 +19 1014.7 1014.2
23 16.07 СЗ 2 н/о н/о +18.3 +17.3 94 +19 +19 1014.6 1014.1
00 17.07 СЗ 2 5000 м в посл. час ливневой дождь 10/10
[St]
+19.1 +17.3 89 +22 +22 комфорт 1014.3 1013.8 +17.9 0.0
01 17.07 СЗ 3 н/о н/о +20.5 +17.9 85 +25 +25 комфорт 1014.2 1013.7
02 17.07 С 3 н/о н/о +20.7 +17.1 80 +25 +25 комфорт 1014.3 1013.8
03 17.07 С 3 6000 м дымка 9/3
[Cu med, cong Ac trans Ci sp]
+22.0 +18.4 80 +27 +34 душно 1013.7 1013.2
04 17.07 С 4 н/о н/о +22.3 +18.3 78 +27 +27 душно 1013.9 1013.4
05 17.07 СЗ 4 н/о н/о +22.1 +18.3 79 +27 +27 душно 1013.8 1013.3
06 17.07 С 3 8000 м дымка 9/9
[Cu Sc Ac trans]
+22.0 +19.0 83 +27 +28 душно 1013.9 1013.4
07 17.07 С 2 н/о н/о +21.9 +18.7 82 +27 +27 душно 1013.7 1013.2
08 17.07 С 2 н/о н/о +22.2 +19.0 82 +28 +28 душно 1013.5 1013.0
09 17.07 СЗ 2 15 км 9/4
[Sc diur, vesp Ci fib]
+21.6 +19.0 85 +26 +27 душно 1013.4 1012.9
11 17.07 СЗ 2 н/о н/о +20.3 +19.1 93 +25 +25 комфорт 1014.0 1013.5
12 17.07 СЗ 1 10 км 3/1
[Sc Ac As]
+20.2 +19.2 94 +25 +25 комфорт 1014.1 1013.6 +23.2
13 17.07 СЗ 2 н/о н/о +20.4 +19.2 93 +25 +25 комфорт 1013.9 1013.4
14 17.07 СЗ 1 н/о н/о +20.3 +19.1 93 +25 +25 комфорт 1014.1 1013.6
15 17.07 СЗ 2 н/о н/о +19.8 +19.0 95 +24 +24 комфорт 1013.8 1013.3
16 17.07 СЗ 3 н/о н/о +19.2 +18.9 98 +21 +21 комфорт 1013.5 1013.0
17 17.07 СЗ 2 н/о н/о +18.8 +18.8 100 +21 +21 комфорт 1013.8 1013.3
18 17.07 СЗ 1 300 м сильн. морось {туман} ?/? +18.9 +18.9 100 +22 +22 комфорт 1014.1 1013.6 0.0
19 17.07 ЮВ 2 н/о н/о +18.9 +18.9 100 +21 +21 комфорт 1013.8 1013.3
20 17.07 СЗ 1 н/о н/о +19.2 +18.9 98 +23 +23 комфорт 1014.0 1013.5
21 17.07 СВ 1 2500 м дымка {туман} 9/4
[St Ci fib]
+19.7 +18.7 94 +24 +25 комфорт 1013.8 1013.3
22 17.07 С 2 н/о н/о +19.7 +19.1 96 +23 +23 комфорт 1014.1 1013.6
23 17.07 С 3 н/о н/о +20.0 +18.7 92 +24 +24 комфорт 1013.9 1013.4
00 18.07 СЗ 3 2000 м дымка {туман} 9/5
[Cu med, cong Ac trans Cs]
+20.7 +18.7 88 +25 +28 комфорт 1013.9 1013.4 +18.7 0.0
01 18.07 С 3 н/о н/о +21.2 +18.6 85 +26 +26 душно 1014.0 1013.5
02 18.07 СЗ 3 н/о н/о +23.0 +19.2 79 +29 +29 очень
душно
1013.7 1013.2
03 18.07 СЗ 3 20 км 9/1
[Cu med, cong Ac trans Cs]
+24.7 +19.5 73 +30 +38 очень
душно
1012.9 1012.4
04 18.07 С 4 н/о н/о +24.5 +19.8 75 +30 +30 очень
душно
1012.3 1011.8
05 18.07 СЗ 3 н/о н/о +25.2 +20.0 73 +31 +31 очень
душно
1012.1 1011.6
06 18.07 СЗ 5 20 км 10/1
[Cu Sc Ac trans Cs]
+23.6 +20.0 80 +29 +32 душно 1011.5 1011.0
07 18.07 СЗ 5 н/о н/о +22.6 +19.8 84 +29 +29 очень
душно
1011.4 1010.9
08 18.07 СЗ 3 н/о н/о +22.2 +19.4 84 +28 +28 душно 1012.0 1011.5
09 18.07 С 1 15 км 10/1
[Sc As op]
+22.1 +18.9 82 +27 +28 душно 1012.0 1011.5
10 18.07 СЗ 2 н/о н/о +21.8 +19.0 84 +27 +27 душно 1011.9 1011.4
11 18.07 СЗ 3 н/о н/о +21.6 +19.4 87 +27 +27 душно 1012.0 1011.5
12 18.07 СЗ 2 10 км слаб. дождь 10/1
[Sc As op]
+21.4 +19.7 90 +26 +26 душно 1012.3 1011.8 +25.7 0.0
14 18.07 ЮЗ 1 н/о н/о +21.3 +20.0 92 +26 +26 душно 1011.7 1011.2
15 18.07 СЗ 2 н/о н/о +21.0 +20.0 94 +27 +27 душно 1011.4 1010.9
16 18.07 СЗ 2 н/о н/о +20.4 +19.8 96 +25 +25 комфорт 1010.7 1010.2
18 18.07 З 2 6000 м слаб. дождь 10/4
[Sc As op]
+20.2 +19.6 96 +25 +25 комфорт 1010.3 1009.8 0.0
19 18.07 СЗ 2 н/о н/о +20.1 +19.8 98 +25 +25 комфорт 1010.2 1009.7
20 18.07 СЗ 2 н/о н/о +19.7 +19.4 98 +23 +23 комфорт 1010.3 1009.8

 

Местоположение метеостанции Аомори (Япония): широта 40.82 долгота 140.76 высота над уровнем моря 3 м.

В архиве по умолчанию представлена погода в Аомори за последнюю неделю. Архивные данные за месяц целиком и за предыдущие месяцы, начиная с января 2011 года, Вы можете получить, выбрав интересующий диапазон дат из раскрывающегося списка и нажав кнопку "Ввод!".


*Определитесь, кто Вы:
робот инопланетянин человек

Внимание! Время в таблицах - всемирное. Для получения местного времени необходимо прибавить поправку, которая равна 9 ч.

Смотрите также архив погоды в соседних городах и на ближайших метеорологических станциях:

Погода в Муцу (Япония) (64 км)
Погода в Хатинохе (Япония) (71 км)
Погода в Фукауре (Япония) (72 км)
Погода в Хакодате (Япония) (111 км)
Погода в Эсаси (Япония) (129 км)
Погода в Мориоке (Япония) (129 км)
Погода в Аките (Япония) (135 км)
Погода в Мияко (Япония) (165 км)
Погода в Муроране (Япония) (168 км)
Погода в Томакомае (Япония) (211 км)

Пояснения к столбцам:

Ветер - указаны скорость ветра в м/с - средняя за 10 мин, порывы в срок и между сроками (в фигурных скобках) и направление, откуда дует ветер: С - северный, СВ - северо-восточный, В - восточный, ЮВ - юго-восточный, Ю - южный, ЮЗ - юго-западный, З - западный, СЗ - северо-западный.
Видимость - горизонтальная дальность видимости в метрах или километрах. При видимости от 1 до 10 км при отсутствии осадков обычно наблюдается дымка, при ухудшении видимости до 1 км и менее - туман. В сухую погоду видимость может ухудшаться дымом, пылью или мглою.
Явления - указаны атмосферные явления, наблюдавшиеся в срок или в последний час перед сроком; фигурными скобками обозначены явления, наблюдавшиеся между сроками (за 1-3 часа до срока); квадратными скобками обозначены град или гололедные отложения с указанием их диаметра в мм.
Облачность - указаны через наклонную черту общая и нижняя облачность в баллах и высота нижней границы облаков в метрах; квадратными скобками обозначены формы облаков: Ci - перистые, Cs - перисто-слоистые, Cc - перисто-кучевые, Ac - высококучевые, As - высокослоистые, Sc - слоисто-кучевые, Ns - слоисто-дождевые, Cu - кучевые, Cb - кучево-дождевые. Подробнее классификацию облаков см. в Атласе облаков (PDF).
T - Температура воздуха - температура, измеренная на высоте 2 м над землей.
Td - Температура точки росы - температура, при понижении до которой содержащийся в воздухе водяной пар достигнет насыщения.
f - Относительная влажность воздуха - влажноcть воздуха, измеренная на высоте 2 м над землей.
Te - Эффективная температура - температура, которую ощущает одетый по сезону человек в тени. Характеристика душности погоды. При расчете учитывается влияние влажности воздуха и скорости ветра на теплоощущения человека.
Tes - Эффективная температура на солнце - температура, которую ощущает человек, с поправкой на солнечный нагрев. Характеристика знойности погоды. Зависит от высоты солнца над горизонтом, облачности и скорости ветра. Ночью, в пасмурную погоду, а также при ветре 12 м/с и более поправка равна нулю.
P - Атмосферное давление - приведенное к уровню моря атмосферное давление.
Po - Атмосферное давление - измеренное на уровне метеостанции атмосферное давление.
Tmin - Минимальная температура - минимум температуры воздуха на высоте 2 м над землей.
Tmax - Максимальная температура - максимум температуры воздуха на высоте 2 м над землей.
R - Количество осадков - Количество выпавших осадков за период времени, мм. При наведении курсора мыши на число - период времени, за который выпало указанное количество осадков.
R24 - Количество осадков - Количество выпавших осадков за 24 часа, мм.
S - Снежный покров - Высота снежного покрова, см. При наведении курсора мыши на число - состояние снежного покрова и степень покрытия местности в баллах.